Location: Goulburn
(34.7479°S, 149.7277°E)
Time: 19:02:13
(UTC+11:00)

LightSail 2 - Pass Details

Date: 23 October 2019
Orbit: 698 x 729 km, 24.0° (Epoch: 21 November)

Event Time Altitude Azimuth Distance (km) Brightness Sun altitude
Exits shadow 05:11:17 15° 313° (NW) 1,881 6.7 -12.3°
Maximum altitude 05:14:13 24° 355° (N) 1,477 6.5 -11.7°
Drops below altitude 10° 05:18:23 10° 48° (NE) 2,211 8.0 -10.9°
Sets 05:21:13 0° 61° (ENE) 3,126 9.1 -10.4°
